Regional Weather Roundup
Issued by NWS

Home | Current Version | Previous Version | Graphics & Text | Print | Product List | Glossary On
Versions: 1 2 3 4 5 6 7 8 9 10 11 12 13 14 15 16 17 18 19 20 21 22 23 24 25 26 27 28 29 30 31 32 33 34 35 36 37 38 39 40 41 42 43 44 45 46 47 48 49 50
967
ASUS44 KLIX 021810
RWRLA
LOUISIANA WEATHER ROUNDUP
NATIONAL WEATHER SERVICE NEW ORLEANS LA
1200 PM CST MON MAR 02 2015

NOTE: "FAIR" INDICATES FEW OR NO CLOUDS BELOW 12,000 FEET WITH NO
      SIGNIFICANT WEATHER AND/OR OBSTRUCTIONS TO VISIBILITY.
      SKY/WX - SKY CONDITION AND SIGNIFICANT WEATHER.
      TMP - AIR TEMPERATURE.    DP   - DEWPOINT TEMPERATURE.
      RH  - RELATIVE HUMIDITY.  PRES - PRESSURE.
      HX  - HEAT INDEX.         WCI  - WIND CHILL INDEX.

*  THESE STATIONS ARE NOT NWS OR FAA STATIONS AND ARE NOT UNDER
   NWS QUALITY CONTROL.

LAZ040-048-061>063-065-066-069-021900-
SOUTHEAST LOUISIANA

CITY           SKY/WX    TMP DP  RH WIND       PRES   REMARKS
N.O. AUDUBON     N/A     76  74  93 MISG        N/A
6HR MIN TEMP:  61; 6HR MAX TEMP:  76;

N.O. INTL ARPT PTSUNNY   74  68  81 S14       30.26F
6HR MIN TEMP:  61; 6HR MAX TEMP:  75;

N.O. LAKEFRONT CLOUDY    63  57  81 N12       30.26F HAZE
6HR MIN TEMP:  59; 6HR MAX TEMP:  77;

SLIDELL        CLOUDY    69  67  93 CALM      30.26F
6HR MIN TEMP:  61; 6HR MAX TEMP:  70; 6HR PCP:  0.01;

BATON ROUGE    CLOUDY    65  63  93 CALM      30.27S FOG
6HR MIN TEMP:  60; 6HR MAX TEMP:  65; 6HR PCP:  0.01;

BOOTHVILLE     SUNNY     75  69  81 S13       30.26F
6HR MIN TEMP:  64; 6HR MAX TEMP:  76;

BELLE CHASSE   PTSUNNY   76  69  79 S10       30.25F
6HR MIN TEMP:  62; 6HR MAX TEMP:  76; 6HR PCP: TRACE;

BOGALUSA*      HVY RAIN  64  61  91 CALM      30.29F
6HR MIN TEMP:  62; 6HR MAX TEMP:  64; 6HR PCP:  0.19;

GALLIANO*      MOCLDY    67  63  87 SE3       30.26F
6HR MIN TEMP:  53; 6HR MAX TEMP:  67;

NEW ROADS*     CLOUDY    54  53  97 NW6       30.28F
6HR MIN TEMP:  53; 6HR MAX TEMP:  61; 6HR PCP:  2.34;

GONZALES*      CLOUDY    71  71  99 S5        30.25F FOG
6HR MIN TEMP:  60; 6HR MAX TEMP:  71; 6HR PCP:  0.01;

HAMMOND*       CLOUDY    66  64  94 CALM      30.28F FOG
HOUMA*         CLOUDY    72  70  94 S3        30.27F FOG
PORT FOURCHON* PTCLDY    75  70  83 SE9       30.29F HAZE

$$

LAZ041-044-053-054-021900-
SOUTHWEST LOUISIANA

CITY           SKY/WX    TMP DP  RH WIND       PRES   REMARKS
LAKE CHARLES   CLOUDY    57  55  93 NE7       30.28F FOG
6HR MIN TEMP:  57; 6HR MAX TEMP:  63; 6HR PCP:  0.21;

LAFAYETTE      FOG       60  59  96 NE5       30.27F VSB 1
6HR MIN TEMP:  59; 6HR MAX TEMP:  63; 6HR PCP: TRACE;

PATTERSON      PTSUNNY   75  70  83 SW7       30.26F
6HR MIN TEMP:  61; 6HR MAX TEMP:  75;

SALT POINT       N/A     72  69  90 VRB3      30.24F
6HR MIN TEMP:  62; 6HR MAX TEMP:  72;

NEW IBERIA     FOG       66  65  96 N5        30.27F VSB 1/2
6HR MIN TEMP:  63; 6HR MAX TEMP:  68;

CHENAULT AIRPK NOT AVBL

$$

LAZ027-028-021900-
CENTRAL LOUISIANA

CITY           SKY/WX    TMP DP  RH WIND       PRES   REMARKS
FORT POLK      CLOUDY    50  49  96 NE8       30.30F
6HR MIN TEMP:  47; 6HR MAX TEMP:  50; 6HR PCP:  0.07;

ALEXANDRIA INT LGT RAIN  46  46 100 NE7       30.31F FOG
6HR MIN TEMP:  46; 6HR MAX TEMP:  47; 6HR PCP:  0.19;

ALEXANDRIA     LGT RAIN  47  45  93 N6        30.33S
6HR MIN TEMP:  46; 6HR MAX TEMP:  48; 6HR PCP:  0.05;


$$

LAZ001-002-021900-
NORTHWEST LOUISIANA

CITY           SKY/WX    TMP DP  RH WIND       PRES   REMARKS
SHREVEPORT     DRIZZLE   44  42  93 NE9       30.35F FOG
6HR MIN TEMP:  42; 6HR MAX TEMP:  44; 6HR PCP: TRACE;

BARKSDALE AFB  CLOUDY    42  42  99 NE7       30.35F FOG
6HR MIN TEMP:  41; 6HR MAX TEMP:  42;

DTN SHREVEPORT CLOUDY    42  39  89 NE6       30.36F FOG
6HR MIN TEMP:  41; 6HR MAX TEMP:  42;


$$

LAZ014-016-021900-
NORTHEAST LOUISIANA

CITY           SKY/WX    TMP DP  RH WIND       PRES   REMARKS
MONROE         CLOUDY    40  38  93 NE13      30.38F WCI  32
6HR MIN TEMP:  40; 6HR MAX TEMP:  42;

TALLULAH       CLOUDY    45  43  93 NE7       30.35F
6HR MIN TEMP:  42; 6HR MAX TEMP:  45; 6HR PCP: TRACE;


$$




USA.gov is the U.S. government's official web portal to all federal, state and local government web resources and services.